Northeast Philadelphia, PA

1:35 AM EST on January 23, 2018 (GMT -0500)
Northeast Philadelphia

Weather History for KPNE - October, 2010

Change the Weather History Date:

Friday, October 15, 2010

  Actual Average Record
Temperature  
Mean Temperature 53 °F -  
Max Temperature 61 °F 63 °F 78 °F (2000)
Min Temperature 46 °F 44 °F 34 °F (1999)
Degree Days  
Heating Degree Days 12    
Growing Degree Days 3 (Base 50)    
Moisture  
Dew Point 40 °F    
Average Humidity 62    
Maximum Humidity 100    
Minimum Humidity 38    
Precipitation  
Precipitation 0.00 in - - ()
Sea Level Pressure  
Sea Level Pressure 29.62 in    
Wind  
Wind Speed 13 mph (WNW)    
Max Wind Speed 24 mph    
Max Gust Speed 37 mph    
Visibility 10 miles    
Events      
Averages and records for this station are not official NWS values.
T = Trace of Precipitation, MM = Missing Value Source: NWS Daily Summary

Daily Weather History Graph

Daily Weather History Graph

Search for Another Location

Airport or City:

Trip Planner

Search our weather history database for the weather conditions in past years. The results will help you decide how hot, cold, wet, or windy it might be!

Date:

Astronomy

Oct. 15, 2010 Rise Set
Actual Time 7:10 AM EDT 6:20 PM EDT
Civil Twilight 6:43 AM EDT 6:47 PM EDT
Nautical Twilight 6:11 AM EDT 7:19 PM EDT
Astronomical Twilight 5:40 AM EDT 7:50 PM EDT
Moon 2:41 PM EDT (10/15) 12:01 AM EDT (10/15)
Length of Visible Light 12h 04m
Length of Day
11h 09m
First Quarter, 57% of the Moon is Illuminated
Oct 15
First Quarter
Oct 22
Full
Oct 30
Last Quarter
Nov 6
New
Nov 13
First Quarter

Hourly Weather History & Observations

Time (EDT) Temp. Dew Point Humidity Pressure Visibility Wind Dir Wind Speed Gust Speed Precip Events Conditions
12:17 AM 50.0 °F - N/A% 29.67 in 10.0 mi WNW 8.1 mph - N/A   Mostly Cloudy
12:54 AM 50.0 °F 50.0 °F 100% 29.66 in 10.0 mi WNW 9.2 mph - N/A   Clear
1:54 AM 48.9 °F 48.9 °F 100% 29.65 in 10.0 mi WNW 6.9 mph - N/A   Clear
2:54 AM 48.9 °F 46.0 °F 90% 29.63 in 10.0 mi WNW 10.4 mph - N/A   Clear
3:54 AM 48.0 °F 44.1 °F 86% 29.62 in 10.0 mi WNW 10.4 mph 18.4 mph N/A   Clear
4:54 AM 46.9 °F 42.1 °F 83% 29.64 in 10.0 mi West 13.8 mph 19.6 mph N/A   Clear
5:54 AM 46.9 °F 41.0 °F 80% 29.64 in 10.0 mi West 11.5 mph - N/A   Clear
6:54 AM 46.9 °F 41.0 °F 80% 29.63 in 10.0 mi West 12.7 mph - N/A   Clear
7:54 AM 46.9 °F 41.0 °F 80% 29.65 in 10.0 mi West 10.4 mph - N/A   Clear
8:54 AM 51.1 °F 43.0 °F 74% 29.65 in 10.0 mi West 11.5 mph - N/A   Clear
9:54 AM 53.1 °F 41.0 °F 64% 29.64 in 10.0 mi WNW 21.9 mph 28.8 mph N/A   Clear
10:54 AM 55.0 °F 39.9 °F 57% 29.62 in 10.0 mi WNW 20.7 mph 27.6 mph N/A   Clear
11:54 AM 57.0 °F 39.0 °F 51% 29.61 in 10.0 mi WNW 24.2 mph 31.1 mph N/A   Partly Cloudy
12:54 PM 57.9 °F 37.9 °F 47% 29.58 in 10.0 mi WNW 17.3 mph 31.1 mph N/A   Scattered Clouds
1:54 PM 60.1 °F 37.0 °F 42% 29.56 in 10.0 mi WNW 18.4 mph 33.4 mph N/A   Mostly Cloudy
2:54 PM 59.0 °F 35.1 °F 41% 29.55 in 10.0 mi WNW 18.4 mph 36.8 mph N/A   Overcast
3:54 PM 59.0 °F 35.1 °F 41% 29.57 in 10.0 mi West 16.1 mph 26.5 mph N/A   Overcast
4:54 PM 59.0 °F 34.0 °F 39% 29.58 in 10.0 mi West 13.8 mph 23.0 mph N/A   Overcast
5:54 PM 59.0 °F 33.1 °F 38% 29.60 in 10.0 mi WNW 18.4 mph 32.2 mph N/A   Overcast
6:54 PM 57.9 °F 33.1 °F 39% 29.61 in 10.0 mi WNW 19.6 mph 32.2 mph N/A   Mostly Cloudy
7:54 PM 57.0 °F 35.1 °F 44% 29.63 in 10.0 mi NW 17.3 mph 28.8 mph N/A   Partly Cloudy
8:54 PM 55.0 °F 37.0 °F 51% 29.64 in 10.0 mi WNW 18.4 mph 33.4 mph N/A   Mostly Cloudy
9:54 PM 55.0 °F 37.0 °F 51% 29.65 in 10.0 mi WNW 13.8 mph 21.9 mph N/A   Partly Cloudy
10:54 PM 54.0 °F 37.9 °F 55% 29.67 in 10.0 mi WNW 23.0 mph 36.8 mph N/A   Mostly Cloudy
11:54 PM 54.0 °F 39.0 °F 57% 29.67 in 10.0 mi WNW 11.5 mph 21.9 mph N/A   Scattered Clouds